Weather History for Whiteville, NC

Change the Weather History Date:

Sunday, April 28, 2013

  Actual Average (KLBT) Record (KLBT)
Temperature  
Mean Temperature 62 °F 65 °F  
Max Temperature 72 °F 78 °F 87 °F (2002)
Min Temperature 52 °F 52 °F 39 °F (2005)
Degree Days  
Heating Degree Days 3 3  
Month to date heating degree days 147  
Since 1 July heating degree days 2723  
Cooling Degree Days 0 3  
Month to date cooling degree days 50  
Year to date cooling degree days 63  
Growing Degree Days 12 (Base 50)    
Moisture  
Dew Point 53 °F    
Average Humidity 71    
Maximum Humidity 92    
Minimum Humidity 50    
Precipitation  
Precipitation 0.00 in 0.08 in 0.45 in (2011)
Month to date precipitation 2.68  
Year to date precipitation 11.88  
Sea Level Pressure  
Sea Level Pressure 30.18 in    
Wind  
Wind Speed 3 mph (SE)    
Max Wind Speed 14 mph    
Max Gust Speed 17 mph    
Visibility 10 miles    
Events      
T = Trace of Precipitation, MM = Missing Value Source: NWS Daily Summary

Daily Weather History Graph

Daily Weather History Graph

Search for Another Location

Airport:

Trip Planner

Search our weather history database for the weather conditions in past years. The results will help you decide how hot, cold, wet, or windy it might be!

Date:

Astronomy

Apr. 28, 2013 Rise Set
Actual Time 6:28 AM EDT 7:56 PM EDT
Civil Twilight 6:01 AM EDT 8:23 PM EDT
Nautical Twilight 5:29 AM EDT 8:55 PM EDT
Astronomical Twilight 4:56 AM EDT 9:29 PM EDT
Moon 11:20 PM EDT (4/28) 8:47 AM EDT (4/28)
Length of Visible Light 14h 22m
Length of Day
13h 28m
Waning Gibbous, 89% of the Moon is Illuminated
Apr 28
Waning Gibbous
May 2
Last Quarter
May 9
New
May 18
First Quarter
May 25
Full

Hourly Weather History & Observations

Time (EDT) Temp. Dew Point Humidity Pressure Visibility Wind Dir Wind Speed Gust Speed Precip Events Conditions
12:15 AM 55.0 °F 51.1 °F 86% 30.27 in 10.0 mi Calm Calm - N/A   Overcast
12:35 AM 54.9 °F 51.3 °F 88% 30.26 in 10.0 mi Calm Calm - N/A   Overcast
12:55 AM 54.0 °F 50.0 °F 86% 30.25 in 10.0 mi Calm Calm - N/A   Scattered Clouds
1:15 AM 55.6 °F 48.9 °F 78% 30.26 in 10.0 mi Calm Calm - N/A   Mostly Cloudy
1:35 AM 55.8 °F 48.6 °F 77% 30.26 in 10.0 mi Calm Calm - N/A   Overcast
1:55 AM 54.3 °F 50.2 °F 86% 30.24 in 10.0 mi Calm Calm - N/A   Overcast
2:15 AM 54.9 °F 49.8 °F 83% 30.24 in 10.0 mi Calm Calm - N/A   Overcast
2:35 AM 55.4 °F 49.3 °F 80% 30.24 in 10.0 mi Calm Calm - N/A   Overcast
2:55 AM 55.0 °F 49.5 °F 81% 30.24 in 10.0 mi Calm Calm - N/A   Overcast
3:15 AM 54.5 °F 50.2 °F 85% 30.24 in 10.0 mi Calm Calm - N/A   Overcast
3:35 AM 54.5 °F 50.4 °F 86% 30.23 in 10.0 mi Calm Calm - N/A   Overcast
3:55 AM 54.5 °F 50.9 °F 88% 30.22 in 10.0 mi Calm Calm - N/A   Overcast
4:15 AM 55.2 °F 49.5 °F 81% 30.21 in 10.0 mi Calm Calm - N/A   Overcast
4:35 AM 54.5 °F 50.0 °F 85% 30.19 in 10.0 mi Calm Calm - N/A   Mostly Cloudy
4:55 AM 54.5 °F 50.0 °F 85% 30.20 in 10.0 mi Calm Calm - N/A   Scattered Clouds
5:15 AM 53.4 °F 50.0 °F 88% 30.20 in 10.0 mi Calm Calm - N/A   Mostly Cloudy
5:35 AM 52.9 °F 50.0 °F 90% 30.20 in 10.0 mi Calm Calm - N/A   Overcast
5:55 AM 53.6 °F 50.4 °F 89% 30.20 in 10.0 mi Calm Calm - N/A   Overcast
6:15 AM 54.1 °F 50.7 °F 88% 30.20 in 10.0 mi Calm Calm - N/A   Mostly Cloudy
6:35 AM 54.5 °F 51.1 °F 88% 30.21 in 10.0 mi Calm Calm - N/A   Overcast
6:55 AM 54.5 °F 51.8 °F 91% 30.22 in 10.0 mi Calm Calm - N/A   Mostly Cloudy
7:15 AM 54.7 °F 52.2 °F 91% 30.23 in 10.0 mi Calm Calm - N/A   Overcast
7:35 AM 55.4 °F 53.1 °F 92% 30.24 in 10.0 mi Calm Calm - N/A   Overcast
7:55 AM 56.3 °F 53.2 °F 89% 30.24 in 10.0 mi Calm Calm - N/A   Overcast
8:15 AM 57.2 °F 53.4 °F 87% 30.23 in 10.0 mi NE 3.5 mph - N/A   Overcast
8:35 AM 58.1 °F 53.8 °F 86% 30.24 in 10.0 mi ENE 3.5 mph - N/A   Overcast
9:15 AM 60.4 °F 54.9 °F 82% 30.23 in 10.0 mi East 5.8 mph - N/A   Overcast
9:35 AM 63.0 °F 54.3 °F 73% 30.22 in 10.0 mi East 8.1 mph - N/A   Overcast
9:55 AM 63.5 °F 54.1 °F 72% 30.22 in 10.0 mi East 5.8 mph - N/A   Overcast
10:15 AM 64.8 °F 55.2 °F 71% 30.23 in 10.0 mi ESE 4.6 mph - N/A   Overcast
10:35 AM 66.2 °F 55.6 °F 69% 30.23 in 10.0 mi ESE 6.9 mph - N/A   Overcast
10:55 AM 67.6 °F 56.5 °F 67% 30.23 in 10.0 mi SE 5.8 mph - N/A   Overcast
11:15 AM 69.6 °F 56.1 °F 62% 30.23 in 10.0 mi SE 8.1 mph - N/A   Mostly Cloudy
11:35 AM 71.2 °F 54.7 °F 56% 30.22 in 10.0 mi SE 11.5 mph 17.3 mph N/A   Scattered Clouds
11:55 AM 70.2 °F 52.5 °F 53% 30.22 in 10.0 mi SE 9.2 mph 17.3 mph N/A   Scattered Clouds
12:15 PM 70.3 °F 52.7 °F 53% 30.21 in 10.0 mi ESE 10.4 mph - N/A   Mostly Cloudy
12:35 PM 70.2 °F 52.5 °F 53% 30.21 in 10.0 mi SE 11.5 mph - N/A   Scattered Clouds
12:55 PM 70.0 °F 52.7 °F 54% 30.20 in 10.0 mi SE 6.9 mph - N/A   Scattered Clouds
1:15 PM 69.8 °F 52.5 °F 54% 30.20 in 10.0 mi SSE 10.4 mph 16.1 mph N/A   Scattered Clouds
1:35 PM 70.5 °F 53.4 °F 55% 30.19 in 10.0 mi SE 9.2 mph - N/A   Light Drizzle
1:55 PM 71.2 °F 53.2 °F 53% 30.18 in 10.0 mi ESE 9.2 mph 17.3 mph N/A   Clear
2:15 PM 71.2 °F 52.7 °F 52% 30.18 in 10.0 mi SE 9.2 mph - N/A   Scattered Clouds
2:35 PM 72.3 °F 52.7 °F 50% 30.17 in 10.0 mi ESE 12.7 mph - N/A   Mostly Cloudy
2:55 PM 71.2 °F 51.8 °F 50% 30.16 in 10.0 mi SSE 11.5 mph 17.3 mph N/A   Mostly Cloudy
3:15 PM 70.7 °F 52.2 °F 52% 30.15 in 10.0 mi SE 11.5 mph 16.1 mph N/A   Mostly Cloudy
3:35 PM 70.9 °F 54.0 °F 55% 30.15 in 10.0 mi SSE 12.7 mph - N/A   Mostly Cloudy
3:55 PM 70.0 °F 54.3 °F 57% 30.14 in 10.0 mi SE 13.8 mph 17.3 mph N/A   Mostly Cloudy
4:15 PM 69.6 °F 54.3 °F 58% 30.13 in 10.0 mi SE 10.4 mph 17.3 mph N/A   Overcast
4:35 PM 69.3 °F 54.5 °F 59% 30.13 in 10.0 mi SE 10.4 mph 16.1 mph N/A   Overcast
4:55 PM 69.3 °F 54.0 °F 58% 30.12 in 10.0 mi SE 10.4 mph - N/A   Mostly Cloudy
5:15 PM 68.9 °F 54.0 °F 59% 30.12 in 10.0 mi SE 10.4 mph - N/A   Overcast
5:35 PM 68.9 °F 54.1 °F 59% 30.11 in 10.0 mi SSE 11.5 mph 17.3 mph N/A   Overcast
5:55 PM 68.2 °F 53.8 °F 60% 30.11 in 10.0 mi SE 9.2 mph - N/A   Overcast
6:15 PM 68.0 °F 53.6 °F 60% 30.11 in 10.0 mi SE 8.1 mph - N/A   Overcast
6:35 PM 68.0 °F 54.1 °F 61% 30.10 in 10.0 mi SE 8.1 mph - N/A   Overcast
6:55 PM 67.5 °F 54.3 °F 63% 30.09 in 10.0 mi SE 8.1 mph - N/A   Overcast
7:15 PM 67.5 °F 54.5 °F 63% 30.10 in 10.0 mi SE 5.8 mph - N/A   Overcast
7:35 PM 67.1 °F 54.7 °F 64% 30.09 in 10.0 mi SE 4.6 mph - N/A   Overcast
7:55 PM 66.7 °F 55.0 °F 66% 30.10 in 10.0 mi SSE 4.6 mph - N/A   Overcast
8:15 PM 66.6 °F 55.4 °F 67% 30.10 in 10.0 mi SE 5.8 mph - N/A   Overcast
8:35 PM 65.3 °F 55.8 °F 71% 30.10 in 10.0 mi SE 6.9 mph - N/A   Light Drizzle
8:55 PM 65.7 °F 55.6 °F 70% 30.10 in 10.0 mi South 4.6 mph - N/A   Overcast
9:15 PM 66.0 °F 55.8 °F 69% 30.10 in 10.0 mi SSE 4.6 mph - N/A   Overcast
9:35 PM 65.7 °F 55.9 °F 71% 30.10 in 10.0 mi SE 3.5 mph - N/A   Overcast
9:55 PM 65.3 °F 55.9 °F 72% 30.09 in 10.0 mi ESE 4.6 mph - N/A   Overcast
10:15 PM 65.3 °F 56.3 °F 73% 30.10 in 10.0 mi SE 3.5 mph - N/A   Overcast
10:35 PM 65.5 °F 57.0 °F 74% 30.09 in 10.0 mi SE 8.1 mph - N/A   Overcast
10:55 PM 66.2 °F 57.4 °F 73% 30.09 in 10.0 mi SE 4.6 mph - N/A   Overcast
11:15 PM 66.2 °F 57.4 °F 73% 30.09 in 10.0 mi SE 6.9 mph - N/A   Overcast
11:35 PM 66.2 °F 57.4 °F 73% 30.08 in 10.0 mi SSE 6.9 mph - N/A   Overcast
11:55 PM 66.2 °F 57.4 °F 73% 30.08 in 10.0 mi SE 6.9 mph - N/A   Overcast